[[{"header":{"parameterUnit":"m.s-1","parameterCategory":1,"la1":30.2991,"la2":30.254,"lo1":-89.0895,"lo2":-89.0444,"dy":0.0017,"dx":0.0017,"nx":28,"ny":28,"refTime":"2025-09-13T03:00:00:Z","depth":0,"parameterNumber":2,"parameterNumberName":"U-component_of_WINDS"},"data":[0,0,0,0,0,0,0,0,0,0,0,0,0,0,0,0,0,0,0,0,0,0,0,0,0,0,0,0,0,0,0,0,0,0,0,0,0,0,0,0,0,0,0,0,0,0,0,0,0,0,0,0,0,0,0,0,0,0,-0.3817,-0.3815,0,-0.3692,-0.369,-0.3689,-0.3635,-0.3636,-0.3636,-0.3636,-0.3505,-0.3501,-0.3498,0,0,0,0,0,0,0,0,0,0,0,0,0,-0.4009,-0.4006,-0.3817,-0.3815,-0.3814,-0.3692,-0.369,-0.3688,-0.3635,-0.3636,-0.3636,-0.3636,-0.3506,-0.3502,-0.3497,0,0,0,0,0,0,0,0,0,0,0,0,0,-0.3909,-0.4005,-0.3817,-0.3773,-0.3767,-0.3692,-0.369,-0.3688,-0.3635,-0.3636,-0.3636,-0.3636,-0.3508,-0.3502,-0.3497,-0.3456,0,0,-0.348,-0.3478,0,0,0,0,0,0,0,0,-0.3915,-0.3902,-0.3781,-0.3775,-0.377,-0.3679,-0.371,-0.361,-0.3635,-0.3685,-0.3636,-0.3636,-0.3563,-0.3553,-0.3528,-0.345,-0.3444,-0.3479,-0.3476,-0.3474,-0.3472,0,0,0,0,0,0,0,-0.3922,-0.3907,-0.3767,-0.3779,-0.3772,-0.3759,-0.3745,-0.3691,-0.3623,-0.3681,-0.3677,-0.3663,-0.356,-0.3534,-0.3525,-0.3442,-0.348,-0.3475,-0.3471,-0.3469,-0.3326,-0.3325,0,0,0,0,0,0,-0.3936,-0.3913,-0.3771,-0.3763,-0.3844,-0.3755,-0.3739,-0.3708,-0.3624,-0.3612,-0.3663,-0.3661,-0.3543,-0.3531,-0.352,-0.3467,-0.3474,-0.3469,-0.3465,-0.3326,-0.3326,-0.3325,0,0,0,0,0,0,-0.394,-0.3924,-0.3776,-0.3837,-0.3817,-0.3751,-0.3716,-0.3705,-0.3679,-0.361,-0.3598,-0.3649,-0.3543,-0.3528,-0.3473,-0.3462,-0.3466,-0.3461,-0.3327,-0.3326,-0.3325,-0.3362,0,0,0,0,0,0,-0.3946,-0.3926,-0.391,-0.3837,-0.3814,-0.3731,-0.3716,-0.3703,-0.367,-0.3667,-0.3594,-0.3582,-0.3542,-0.3481,-0.3467,-0.3455,-0.3457,-0.3327,-0.3326,-0.3326,-0.3361,-0.3362,-0.3363,0,0,0,0,0,-0.3953,-0.3924,-0.3909,-0.3892,-0.3793,-0.3731,-0.3718,-0.3673,-0.367,-0.3653,-0.3609,-0.3584,-0.3466,-0.3476,-0.346,-0.3445,-0.3328,-0.3327,-0.3326,-0.3361,-0.3362,-0.3363,0,0,0,0,0,0,-0.3995,-0.3913,-0.3896,-0.3842,-0.3794,-0.3722,-0.3699,-0.3676,-0.3627,-0.3625,-0.3571,-0.3555,-0.3505,-0.347,-0.3483,-0.3402,-0.3395,-0.3391,-0.3427,-0.3428,-0.3429,-0.3438,-0.3452,0,0,0,0,0,-0.3998,-0.3956,-0.3886,-0.3846,-0.3823,-0.3766,-0.3737,-0.3707,-0.3654,-0.3633,-0.3585,-0.3535,-0.3486,-0.3455,-0.3406,-0.3356,-0.334,-0.3338,-0.334,-0.3341,-0.3337,-0.331,-0.3308,-0.3321,-0.3321,-0.3321,0,0,-0.4004,-0.3954,-0.393,-0.3853,-0.3812,-0.3769,-0.3748,-0.3703,-0.3671,-0.3626,-0.3572,-0.3535,-0.3475,-0.3423,-0.3397,-0.3392,-0.3331,-0.3339,-0.3341,-0.3337,-0.3308,-0.3307,-0.3306,-0.3321,-0.3321,-0.3321,0,0,-0.3993,-0.395,-0.3913,-0.3873,-0.3812,-0.3774,-0.3766,-0.3697,-0.3672,-0.3617,-0.3583,-0.3544,-0.3461,-0.342,-0.3389,-0.3365,-0.3341,-0.3351,-0.3356,-0.333,-0.3329,-0.3328,-0.332,-0.3318,-0.3348,-0.3348,-0.3348,0,-0.4007,-0.3941,-0.3896,-0.3853,-0.3821,-0.378,-0.3742,-0.3705,-0.3631,-0.361,-0.3605,-0.3502,-0.3459,-0.3397,-0.3392,-0.3367,-0.3356,-0.3358,-0.3333,-0.3331,-0.3329,-0.3321,-0.3318,-0.3349,-0.3349,-0.3349,-0.3349,0,-0.3963,-0.3918,-0.3895,-0.3826,-0.3791,-0.375,-0.3699,-0.3669,-0.3643,-0.3607,-0.3552,-0.3499,-0.344,-0.3423,-0.3396,-0.3358,-0.3357,-0.3343,-0.3334,-0.333,-0.3322,-0.3318,-0.3352,-0.3351,-0.3351,-0.335,0,0,-0.3972,-0.3881,-0.3873,-0.3843,-0.3774,-0.3738,-0.3696,-0.364,-0.3615,-0.3566,-0.353,-0.3463,-0.3451,-0.3415,-0.3384,-0.3361,-0.3347,-0.3349,-0.3347,-0.3351,-0.3302,-0.3313,-0.331,-0.3331,-0.333,-0.3329,-0.3308,0,-0.3952,-0.3876,-0.3835,-0.3777,-0.3735,-0.3698,-0.3662,-0.3616,-0.3581,-0.3541,-0.3502,-0.3455,-0.3442,-0.342,-0.3396,-0.3354,-0.3336,-0.3355,-0.3297,-0.3295,-0.3313,-0.3306,-0.3316,-0.3298,-0.3304,-0.3303,-0.3303,0,-0.3917,-0.3871,-0.3809,-0.3746,-0.3727,-0.3696,-0.3642,-0.3603,-0.3551,-0.3527,-0.3489,-0.3459,-0.3414,-0.341,-0.3348,-0.3361,-0.3336,-0.3311,-0.331,-0.3302,-0.3298,-0.3298,-0.3291,-0.3289,-0.3297,-0.3298,-0.3298,0,-0.3932,-0.3853,-0.3806,-0.3781,-0.3707,-0.3686,-0.3654,-0.3601,-0.3571,-0.3524,-0.3503,-0.3451,-0.3423,-0.3383,-0.334,-0.3341,-0.3282,-0.3274,-0.3262,-0.3263,-0.325,-0.3251,-0.3239,-0.3234,-0.3234,-0.3234,-0.3234,0,-0.3913,-0.3876,-0.3812,-0.3783,-0.3741,-0.3695,-0.3656,-0.3621,-0.3575,-0.3539,-0.3503,-0.347,-0.3415,-0.3375,-0.334,-0.3295,-0.3282,-0.3262,-0.3253,-0.3265,-0.3267,-0.3246,-0.3246,-0.3233,-0.3234,-0.3234,-0.3234,0,-0.3921,-0.3876,-0.3823,-0.3758,-0.3741,-0.3713,-0.3658,-0.3628,-0.3593,-0.3548,-0.3534,-0.3478,-0.3429,-0.3383,-0.3317,-0.3294,-0.3249,-0.3237,-0.3267,-0.3262,-0.3252,-0.3254,-0.3225,-0.322,-0.3219,-0.3219,-0.3219,0,-0.3912,-0.3884,-0.3816,-0.379,-0.3759,-0.3717,-0.3686,-0.364,-0.361,-0.3549,-0.3527,-0.3477,-0.3433,-0.3357,-0.331,-0.326,-0.3247,-0.3241,-0.3239,-0.3253,-0.3248,-0.325,-0.3247,-0.3242,-0.3242,-0.3243,-0.3243,0,-0.3901,-0.3881,-0.3838,-0.3788,-0.3753,-0.3711,-0.3668,-0.3648,-0.3594,-0.3562,-0.3512,-0.3479,-0.3413,-0.3363,-0.3308,-0.3275,-0.325,-0.3244,-0.3238,-0.325,-0.3268,-0.3259,-0.327,-0.3244,-0.3244,-0.3244,-0.3244,-0.3244,-0.39,-0.3874,-0.3823,-0.3777,-0.374,-0.3701,-0.3671,-0.3633,-0.3591,-0.3534,-0.351,-0.346,-0.341,-0.3334,-0.3301,-0.3262,-0.3256,-0.3248,-0.3245,-0.3244,-0.3247,-0.3276,-0.3252,-0.3252,-0.3252,-0.3251,-0.3251,0,-0.3888,-0.3854,-0.3812,-0.3754,-0.3718,-0.3699,-0.3651,-0.3622,-0.3579,-0.3535,-0.3494,-0.3438,-0.339,-0.334,-0.3289,-0.3267,-0.3255,-0.3255,-0.3256,-0.3249,-0.3255,-0.3265,-0.3267,-0.3267,-0.3267,-0.3267,-0.3267,-0.3267,-0.3877,-0.3832,-0.3806,-0.3742,-0.3708,-0.366,-0.3634,-0.3598,-0.3563,-0.3502,-0.3463,-0.3431,-0.3385,-0.3331,-0.3286,-0.3273,-0.3256,-0.326,-0.3244,-0.325,-0.3249,-0.3248,-0.3257,-0.3257,-0.3257,-0.3241,-0.3241,-0.3241]},{"header":{"parameterUnit":"m.s-1","parameterCategory":1,"la1":30.2991,"la2":30.254,"lo1":-89.0895,"lo2":-89.0444,"dy":0.0017,"dx":0.0017,"nx":28,"ny":28,"refTime":"2025-09-13T03:00:00:Z","depth":0,"parameterNumber":3,"parameterNumberName":"V-component_of_WINDS"},"data":[0,0,0,0,0,0,0,0,0,0,0,0,0,0,0,0,0,0,0,0,0,0,0,0,0,0,0,0,0,0,0,0,0,0,0,0,0,0,0,0,0,0,0,0,0,0,0,0,0,0,0,0,0,0,0,0,0,0,2.4116,2.4115,0,2.4074,2.4074,2.4073,2.4054,2.4054,2.4054,2.4055,2.4011,2.401,2.4009,0,0,0,0,0,0,0,0,0,0,0,0,0,2.4176,2.4175,2.4116,2.4115,2.4115,2.4074,2.4074,2.4073,2.4054,2.4054,2.4054,2.4055,2.4012,2.401,2.4009,0,0,0,0,0,0,0,0,0,0,0,0,0,2.4144,2.4175,2.4116,2.41,2.4099,2.4074,2.4074,2.4073,2.4054,2.4054,2.4054,2.4055,2.4012,2.401,2.4009,2.3996,0,0,2.4003,2.4002,0,0,0,0,0,0,0,0,2.4145,2.4141,2.4103,2.4101,2.4099,2.407,2.4079,2.4047,2.4054,2.4071,2.4055,2.4055,2.4031,2.4027,2.4019,2.3994,2.3992,2.4003,2.4002,2.4001,2.4001,0,0,0,0,0,0,0,2.4148,2.4143,2.4099,2.4103,2.41,2.4095,2.409,2.4073,2.4051,2.407,2.4068,2.4064,2.403,2.4021,2.4018,2.3992,2.4003,2.4001,2.4,2.4,2.3951,2.3951,0,0,0,0,0,0,2.4153,2.4145,2.4101,2.4098,2.4123,2.4094,2.4089,2.4079,2.4051,2.4047,2.4064,2.4063,2.4024,2.402,2.4017,2.3998,2.4001,2.4,2.3998,2.3951,2.3951,2.3951,0,0,0,0,0,0,2.4154,2.4149,2.4102,2.4121,2.4115,2.4092,2.4082,2.4078,2.407,2.4047,2.4042,2.4059,2.4024,2.4019,2.4001,2.3996,2.3999,2.3997,2.3951,2.3951,2.3951,2.3962,0,0,0,0,0,0,2.4156,2.415,2.4146,2.4121,2.4114,2.4088,2.4082,2.4077,2.4067,2.4065,2.4041,2.4037,2.4024,2.4003,2.3999,2.3994,2.3996,2.3952,2.3951,2.3951,2.3962,2.3962,2.3962,0,0,0,0,0,2.4158,2.4151,2.4145,2.414,2.4108,2.4088,2.4084,2.4068,2.4067,2.4061,2.4046,2.4038,2.3998,2.4002,2.3997,2.3991,2.3952,2.3951,2.3951,2.3962,2.3962,2.3962,0,0,0,0,0,0,2.4176,2.4148,2.4141,2.4126,2.4109,2.4085,2.4078,2.407,2.4053,2.4052,2.4034,2.4028,2.4011,2.3999,2.4004,2.3976,2.3974,2.3972,2.3984,2.3984,2.3984,2.3987,2.3994,0,0,0,0,0,2.4178,2.4164,2.414,2.4129,2.4121,2.4101,2.4092,2.4081,2.4063,2.4056,2.4039,2.4022,2.4004,2.3994,2.3977,2.396,2.3953,2.3953,2.3954,2.3954,2.3952,2.3939,2.3938,2.3949,2.3949,2.3949,0,0,2.4182,2.4165,2.4158,2.4132,2.4118,2.4103,2.4095,2.4081,2.4069,2.4054,2.4035,2.4022,2.4,2.3982,2.3973,2.3971,2.3948,2.3953,2.3954,2.3952,2.3939,2.3938,2.3937,2.3948,2.3949,2.3949,0,0,2.4182,2.4169,2.4157,2.4142,2.412,2.4107,2.4104,2.408,2.407,2.4051,2.4038,2.4024,2.3996,2.398,2.3969,2.3959,2.395,2.3954,2.3955,2.3943,2.3942,2.3941,2.3936,2.3934,2.3953,2.3953,2.3953,0,2.419,2.4168,2.4152,2.4136,2.4124,2.4109,2.4096,2.4083,2.4057,2.4048,2.4047,2.4009,2.3994,2.397,2.3968,2.396,2.3954,2.3957,2.3944,2.3942,2.3941,2.3936,2.3934,2.3954,2.3954,2.3954,2.3954,0,2.4177,2.4162,2.4155,2.4129,2.4116,2.4102,2.4082,2.4071,2.4061,2.4047,2.4026,2.4007,2.3985,2.3978,2.3969,2.3952,2.3952,2.3947,2.3945,2.3941,2.3935,2.3933,2.3954,2.3954,2.3954,2.3954,0,0,2.4189,2.4152,2.415,2.4137,2.4111,2.4098,2.4082,2.406,2.4049,2.4032,2.4016,2.3991,2.3986,2.3973,2.3961,2.3951,2.3941,2.3947,2.3946,2.3945,2.3919,2.3921,2.3919,2.3935,2.3935,2.3934,2.392,0,2.4184,2.4155,2.4139,2.4116,2.41,2.4084,2.407,2.4051,2.4037,2.4021,2.4005,2.3986,2.3982,2.3973,2.3962,2.3945,2.3935,2.3946,2.3919,2.3918,2.3924,2.3917,2.392,2.3907,2.3918,2.3917,2.3917,0,2.4175,2.4156,2.4132,2.4104,2.4097,2.4085,2.4061,2.4047,2.4024,2.4014,2.3998,2.3986,2.3966,2.3966,2.3937,2.3945,2.3933,2.3922,2.3921,2.3917,2.3917,2.3911,2.3903,2.3901,2.3914,2.3914,2.3914,0,2.4183,2.4151,2.4132,2.4122,2.409,2.4081,2.4068,2.4045,2.4032,2.4012,2.4002,2.398,2.3968,2.395,2.3931,2.3932,2.3903,2.3902,2.3893,2.3893,2.3887,2.3888,2.3876,2.3882,2.3882,2.3882,2.3882,0,2.4178,2.4164,2.4135,2.4123,2.4105,2.4086,2.4068,2.4053,2.4033,2.4016,2.4001,2.3986,2.3963,2.3944,2.3929,2.3906,2.3901,2.3891,2.3887,2.3892,2.3893,2.3883,2.3883,2.3881,2.3881,2.3882,2.3882,0,2.4184,2.4165,2.4142,2.4114,2.4106,2.4094,2.4068,2.4055,2.4039,2.4019,2.4012,2.3987,2.3964,2.3943,2.3913,2.3903,2.3879,2.3875,2.3886,2.3884,2.3875,2.3876,2.3856,2.3851,2.3862,2.3862,2.3862,0,2.4183,2.4171,2.414,2.4128,2.4114,2.4095,2.4081,2.406,2.4046,2.4018,2.4007,2.3983,2.3962,2.3925,2.3904,2.3879,2.3873,2.3868,2.387,2.3874,2.3871,2.3871,2.3869,2.3868,2.3868,2.3868,2.3868,0,2.418,2.417,2.4151,2.4127,2.4111,2.4091,2.4071,2.4061,2.4037,2.4021,2.3997,2.3981,2.3948,2.3923,2.3896,2.388,2.3869,2.3867,2.3863,2.3868,2.3874,2.3868,2.3885,2.3868,2.3868,2.3868,2.3868,2.3868,2.4181,2.4169,2.4144,2.4122,2.4104,2.4085,2.407,2.4052,2.4032,2.4004,2.3992,2.3967,2.3942,2.3904,2.3888,2.3867,2.3865,2.386,2.3859,2.3857,2.3857,2.3878,2.3862,2.3862,2.3862,2.3862,2.3862,0,2.4176,2.4159,2.4139,2.4111,2.4093,2.4084,2.406,2.4045,2.4023,2.4001,2.398,2.395,2.3925,2.3901,2.3874,2.3861,2.3855,2.3854,2.3855,2.385,2.3861,2.3866,2.386,2.386,2.386,2.386,2.386,2.386,2.4172,2.4149,2.4136,2.4104,2.4087,2.4062,2.4048,2.403,2.4011,2.3979,2.3958,2.3942,2.3918,2.3888,2.3864,2.3857,2.3847,2.3848,2.3839,2.385,2.385,2.3851,2.3855,2.3846,2.3846,2.383,2.383,2.383]}]]